sat.trackr.live / text

‹ back to catalog

STARLINK-11746 [DTC]

NORAD 64372 · 2025-127C

PAYLOAD ACTIVE UNKNOWN

§ Identity

Operator
Country
US
Launch date
2025-06-13
Launch site
AFETR
Launch vehicle
Mass (kg)
RCS (m²)

Purposes: comms

External: N2YO · Heavens-Above · Gunter

§ Orbital elements

Epoch: 2026-09-20T12:07:16.953312Z

Period
91.67 min
Inclination
42.9998°
Eccentricity
0.0002069
Mean motion
15.70852303 rev/d
Perigee alt
355.1 km
Apogee alt
357.9 km
Semi-major
6,734.6 km
B*
1.1255e-3
RAAN
350.0869°
Arg perigee
287.7814°
Mean anomaly
72.2828°
Rev number
7,414

§ Raw data

STARLINK-11746 [DTC]1 64372U 25127C   26263.50505733  .00146625  00000+0  11255-2 0  99952 64372  42.9998 350.0869 0002069 287.7814  72.2828 15.70852303 74149

JSON: /api/v1/satellites/64372 · /tle

For live sub-satellite position, see the globe view (requires WebGL).

§ Visibility from observer

Set your observer location to see the next 7 days of passes ≥ 10°. The values pass through the URL so the page stays shareable.

No JS? Fill the form by hand. The geolocation button needs JavaScript.